CW0879 Weather Reports


time (UTC)temp
C
wind
direction
speed
KPH
gust
KPH
rain 1hr
cm
rain 24hr
cm
rain mn
cm
humidity
%
barometer
mb
20260507023509 17 297 22.5 29.0 0.00 0.00 0.00 81 1018.6
20260507023013 17 289 22.5 30.6 0.00 0.00 0.00 80 1018.5
20260507022507 17 284 22.5 30.6 0.00 0.00 0.00 80 1018.4
20260507022010 17 279 24.1 29.0 0.00 0.00 0.00 80 1018.5
20260507021514 17 288 24.1 30.6 0.00 0.00 0.00 79 1018.5
20260507021010 18 285 24.1 30.6 0.00 0.00 0.00 79 1018.5
20260507020507 18 287 20.9 30.6 0.00 0.00 0.00 79 1018.4
20260507020016 18 287 24.1 30.6 0.00 0.00 0.00 78 1018.4
20260507015506 18 288 22.5 30.6 0.00 0.00 0.00 78 1018.3
20260507015010 18 276 22.5 32.2 0.00 0.00 0.00 77 1018.3
20260507014520 19 298 20.9 32.2 0.00 0.00 0.00 77 1018.3
20260507014011 19 284 24.1 30.6 0.00 0.00 0.00 76 1018.4
20260507013508 20 310 25.7 30.6 0.00 0.00 0.00 75 1018.3
20260507013023 20 281 22.5 30.6 0.00 0.00 0.00 76 1018.3
20260507012514 20 279 22.5 30.6 0.00 0.00 0.00 75 1018.3
20260507012012 20 289 22.5 27.4 0.00 0.00 0.00 74 1018.2
20260507011533 21 292 20.9 27.4 0.00 0.00 0.00 75 1018.2
20260507011006 21 295 19.3 27.4 0.00 0.00 0.00 74 1018.2
20260507010507 21 293 19.3 25.7 0.00 0.00 0.00 73 1018.1
20260507010010 21 287 17.7 25.7 0.00 0.00 0.00 74 1018.1
20260507005512 21 286 19.3 25.7 0.00 0.00 0.00 71 1018.2
20260507005006 22 268 16.1 22.5 0.00 0.00 0.00 71 1018.1
20260507004518 22 280 14.5 20.9 0.00 0.00 0.00 72 1018.0
20260507004007 22 279 14.5 20.9 0.00 0.00 0.00 71 1018.0
20260507003510 22 276 12.9 20.9 0.00 0.00 0.00 71 1018.1
20260507003023 23 285 12.9 22.5 0.00 0.00 0.00 72 1018.1
20260507002506 23 284 17.7 22.5 0.00 0.00 0.00 68 1018.0
20260507002011 23 279 12.9 19.3 0.00 0.00 0.00 69 1018.0
20260507001523 23 272 12.9 17.7 0.00 0.00 0.00 68 1017.9
20260507001011 24 279 12.9 16.1 0.00 0.00 0.00 68 1017.9
20260507000509 24 269 12.9 17.7 0.00 0.00 0.00 68 1018.0
20260507000023 24 277 11.3 17.7 0.00 0.00 0.00 65 1018.0
20260506235508 24 263 11.3 17.7 0.00 0.00 0.00 65 1018.1
20260506235008 25 268 14.5 17.7 0.00 0.00 0.00 64 1018.2
20260506234530 25 267 12.9 17.7 0.00 0.00 0.00 65 1018.1
20260506234007 25 263 11.3 17.7 0.00 0.00 0.00 64 1018.2
20260506233506 25 252 12.9 17.7 0.00 0.00 0.00 65 1018.2
20260506233016 25 268 12.9 19.3 0.00 0.00 0.00 65 1018.2
20260506232509 24 273 12.9 19.3 0.00 0.00 0.00 67 1018.3
20260506232013 24 271 14.5 17.7 0.00 0.00 0.00 69 1018.3
20260506231526 24 276 11.3 14.5 0.00 0.00 0.00 70 1018.3
20260506231009 24 268 11.3 14.5 0.00 0.00 0.00 68 1018.2
20260506230510 23 250 11.3 16.1 0.00 0.00 0.00 66 1018.4
20260506230027 24 273 11.3 16.1 0.00 0.00 0.00 67 1018.5
20260506225507 25 267 8.0 11.3 0.00 0.00 0.00 65 1018.5
20260506225010 26 276 4.8 9.7 0.00 0.00 0.00 62 1018.5
20260506224531 25 277 3.2 9.7 0.00 0.00 0.00 63 1018.6
20260506224014 26 277 4.8 9.7 0.00 0.00 0.00 61 1018.7
20260506223509 26 276 3.2 6.4 0.00 0.00 0.00 63 1018.7
20260506223025 25 276 3.2 9.7 0.00 0.00 0.00 63 1018.7
20260506222506 24 277 4.8 11.3 0.00 0.00 0.00 67 1018.9
20260506222007 24 271 6.4 11.3 0.00 0.00 0.00 68 1019.0
20260506221522 24 263 8.0 11.3 0.00 0.00 0.00 67 1019.0
20260506221008 24 273 8.0 11.3 0.00 0.00 0.00 66 1019.1
20260506220511 24 273 6.4 11.3 0.00 0.00 0.00 68 1019.2
20260506220022 23 279 8.0 11.3 0.00 0.00 0.00 69 1019.4
20260506215510 24 281 9.7 11.3 0.00 0.00 0.00 68 1019.4
20260506215010 24 283 6.4 11.3 0.00 0.00 0.00 68 1019.5
20260506214528 24 281 6.4 9.7 0.00 0.00 0.00 68 1019.4
20260506214007 25 282 6.4 9.7 0.00 0.00 0.00 67 1019.5
20260506213510 25 280 4.8 9.7 0.00 0.00 0.00 69 1019.6
20260506213027 23 284 4.8 6.4 0.00 0.00 0.00 69 1019.6
20260506212510 22 284 4.8 9.7 0.00 0.00 0.00 71 1019.7
20260506212011 22 282 4.8 9.7 0.00 0.00 0.00 71 1019.7
20260506211527 22 282 4.8 9.7 0.00 0.00 0.00 72 1019.7
20260506211008 22 281 4.8 9.7 0.00 0.00 0.00 68 1019.6
20260506210508 22 280 3.2 9.7 0.00 0.00 0.00 70 1019.6
20260506210024 22 280 4.8 9.7 0.00 0.00 0.00 69 1019.6
20260506205510 22 277 4.8 9.7 0.00 0.00 0.00 72 1019.6
20260506205006 22 277 4.8 9.7 0.00 0.00 0.00 72 1019.7
20260506204526 21 283 4.8 9.7 0.00 0.00 0.00 70 1019.7
20260506204016 22 281 6.4 9.7 0.00 0.00 0.00 70 1019.7
20260506203508 21 279 6.4 9.7 0.00 0.00 0.00 69 1019.8
20260506203032 22 278 6.4 9.7 0.00 0.00 0.00 67 1019.9
20260506202509 21 275 4.8 9.7 0.00 0.00 0.00 69 1020.0
20260506202010 22 279 4.8 9.7 0.00 0.00 0.00 68 1020.1
20260506201526 22 279 4.8 9.7 0.00 0.00 0.00 69 1020.1
20260506201011 22 283 4.8 9.7 0.00 0.00 0.00 70 1020.2
20260506200507 21 284 6.4 9.7 0.00 0.00 0.00 69 1020.2
20260506200041 22 280 6.4 11.3 0.00 0.00 0.00 68 1020.4
20260506195508 23 279 6.4 11.3 0.00 0.00 0.00 68 1020.4
20260506195007 23 277 6.4 9.7 0.00 0.00 0.00 69 1020.4
20260506194524 23 283 6.4 9.7 0.00 0.00 0.00 69 1020.5
20260506193506 23 281 6.4 9.7 0.00 0.00 0.00 70 1020.6
20260506193005 22 275 6.4 9.7 0.00 0.00 0.00 69 1020.6
20260506192507 22 279 6.4 11.3 0.00 0.00 0.00 67 1020.7
20260506192004 22 283 4.8 11.3 0.00 0.00 0.00 71 1020.7
20260506191510 22 263 4.8 11.3 0.00 0.00 0.00 70 1020.8
20260506191007 22 273 4.8 11.3 0.00 0.00 0.00 70 1020.8
20260506190508 22 275 4.8 11.3 0.00 0.00 0.00 69 1020.8
20260506190007 21 273 3.2 12.9 0.00 0.00 0.00 72 1020.8
20260506185507 20 289 8.0 12.9 0.00 0.00 0.00 72 1020.8
20260506185009 20 286 8.0 12.9 0.00 0.00 0.00 73 1020.9
20260506184505 20 290 9.7 12.9 0.00 0.00 0.00 73 1020.9
20260506184004 20 293 9.7 12.9 0.00 0.00 0.00 72 1020.9
20260506183504 20 286 9.7 12.9 0.00 0.00 0.00 73 1020.9
20260506183006 20 298 9.7 12.9 0.00 0.00 0.00 73 1021.0
20260506182504 20 298 6.4 11.3 0.00 0.00 0.00 73 1021.0
20260506182007 20 298 6.4 11.3 0.00 0.00 0.00 73 1021.0
20260506181507 18 303 6.4 11.3 0.00 0.00 0.00 73 1021.0
20260506181004 18 303 6.4 11.3 0.00 0.00 0.00 73 1021.0
20260506180504 18 301 6.4 11.3 0.00 0.00 0.00 75 1021.0
20260506180013 18 299 6.4 11.3 0.00 0.00 0.00 75 1021.0
20260506175508 18 297 6.4 11.3 0.00 0.00 0.00 76 1021.0
20260506175003 18 296 6.4 8.0 0.00 0.00 0.00 75 1021.0
20260506174514 18 290 6.4 9.7 0.00 0.00 0.00 77 1021.0
20260506174007 18 289 6.4 9.7 0.00 0.00 0.00 76 1021.0
20260506173508 18 282 4.8 9.7 0.00 0.00 0.00 77 1020.9
20260506173006 17 291 4.8 8.0 0.00 0.00 0.00 76 1021.0
20260506172503 17 290 4.8 8.0 0.00 0.00 0.00 75 1021.1
20260506172003 17 290 4.8 9.7 0.00 0.00 0.00 76 1021.1
20260506171513 17 288 4.8 11.3 0.00 0.00 0.00 76 1021.0
20260506171003 17 284 6.4 11.3 0.00 0.00 0.00 77 1021.0
20260506170504 17 281 6.4 11.3 0.00 0.00 0.00 79 1021.1
20260506170009 17 277 4.8 9.7 0.00 0.00 0.00 79 1021.0
20260506165510 17 278 4.8 9.7 0.00 0.00 0.00 81 1021.0
20260506165005 16 277 6.4 11.3 0.00 0.00 0.00 81 1021.0
20260506164516 16 275 4.8 11.3 0.00 0.00 0.00 81 1021.0
20260506164005 16 274 6.4 11.3 0.00 0.00 0.00 81 1021.0
20260506163503 16 273 4.8 11.3 0.00 0.00 0.00 81 1021.1
20260506163036 16 273 6.4 11.3 0.00 0.00 0.00 82 1021.1
20260506162507 16 267 4.8 11.3 0.00 0.00 0.00 83 1021.1
20260506162010 15 268 4.8 11.3 0.00 0.00 0.00 84 1021.1
20260506161515 15 267 6.4 11.3 0.00 0.00 0.00 84 1021.0
20260506161004 15 267 6.4 11.3 0.00 0.00 0.00 84 1021.1
20260506160506 15 265 4.8 11.3 0.00 0.00 0.00 84 1021.1
20260506160008 15 263 6.4 11.3 0.00 0.00 0.00 84 1021.1
20260506155503 15 264 6.4 11.3 0.00 0.00 0.00 85 1021.1
20260506155004 15 263 6.4 11.3 0.00 0.00 0.00 84 1021.1
20260506154525 15 258 6.4 11.3 0.00 0.00 0.00 85 1021.1
20260506154006 14 254 4.8 11.3 0.00 0.00 0.00 85 1021.1
20260506153508 14 252 4.8 11.3 0.00 0.00 0.00 86 1021.1
20260506153020 14 253 4.8 11.3 0.00 0.00 0.00 86 1021.0
20260506152505 14 252 4.8 8.0 0.00 0.00 0.00 86 1020.9
20260506152011 13 252 4.8 8.0 0.00 0.00 0.00 87 1021.0
20260506151521 13 251 4.8 11.3 0.00 0.00 0.00 87 1021.0
20260506151008 13 251 4.8 11.3 0.00 0.00 0.00 87 1021.0
20260506150508 13 273 4.8 11.3 0.00 0.00 0.00 87 1021.0
20260506150019 13 279 4.8 11.3 0.00 0.00 0.00 87 1020.9
20260506145505 13 279 6.4 11.3 0.00 0.00 0.00 87 1020.9
20260506145005 13 285 6.4 11.3 0.00 0.00 0.00 87 1020.9
20260506144518 13 285 6.4 11.3 0.00 0.00 0.00 87 1020.9
20260506144009 13 287 4.8 11.3 0.00 0.00 0.00 87 1020.9
20260506143509 13 289 6.4 11.3 0.00 0.00 0.00 87 1020.8
20260506143015 13 279 6.4 9.7 0.00 0.00 0.00 87 1020.7
20260506142508 13 277 4.8 11.3 0.00 0.00 0.00 87 1020.7
20260506142010 13 279 4.8 11.3 0.00 0.00 0.00 87 1020.7
20260506141514 13 279 6.4 11.3 0.00 0.00 0.00 87 1020.7
20260506141009 13 292 6.4 11.3 0.00 0.00 0.00 87 1020.6
20260506140508 13 291 6.4 11.3 0.00 0.00 0.00 87 1020.4
20260506140029 13 290 4.8 11.3 0.00 0.00 0.00 87 1020.4
20260506135503 13 287 8.0 11.3 0.00 0.00 0.00 87 1020.3
20260506135007 13 286 6.4 12.9 0.00 0.00 0.00 86 1020.3
20260506134524 13 284 8.0 12.9 0.00 0.00 0.00 87 1020.3
20260506134011 13 282 6.4 11.3 0.00 0.00 0.00 86 1020.3
20260506133508 13 280 6.4 11.3 0.00 0.00 0.00 86 1020.3
20260506133011 13 277 6.4 12.9 0.00 0.00 0.00 86 1020.2
20260506132510 13 272 8.0 12.9 0.00 0.00 0.00 86 1020.2
20260506132008 13 269 9.7 14.5 0.00 0.00 0.00 86 1020.2
20260506131520 13 277 11.3 16.1 0.00 0.00 0.00 86 1020.2
20260506131010 13 280 11.3 16.1 0.00 0.00 0.00 86 1020.1
20260506130512 13 284 11.3 16.1 0.00 0.00 0.00 86 1020.0
20260506130016 13 275 9.7 16.1 0.00 0.00 0.00 86 1020.0
20260506125508 13 279 11.3 16.1 0.00 0.00 0.00 86 1020.0
20260506125007 13 290 8.0 16.1 0.00 0.00 0.00 86 1020.0
20260506124515 13 288 8.0 16.1 0.00 0.00 0.00 86 1019.9
20260506124010 13 289 11.3 14.5 0.00 0.00 0.00 86 1020.0
20260506123513 13 292 9.7 16.1 0.00 0.00 0.00 85 1019.9
20260506123027 13 297 9.7 16.1 0.00 0.00 0.00 86 1020.0
20260506122509 13 271 8.0 16.1 0.00 0.00 0.00 85 1020.0
20260506122008 13 295 11.3 16.1 0.00 0.00 0.00 86 1019.9
20260506121511 13 298 11.3 14.5 0.00 0.00 0.00 85 1019.9
20260506121005 13 298 9.7 14.5 0.00 0.00 0.00 86 1020.0
20260506120506 13 290 8.0 14.5 0.00 0.00 0.00 85 1019.9
20260506120020 13 296 9.7 14.5 0.00 0.00 0.00 86 1019.8
20260506115505 13 271 8.0 14.5 0.00 0.00 0.00 86 1019.7
20260506115008 13 292 11.3 14.5 0.00 0.00 0.00 85 1019.7
20260506114525 13 281 6.4 12.9 0.00 0.00 0.00 85 1019.7
20260506114007 13 287 8.0 16.1 0.00 0.00 0.00 85 1019.7
20260506113509 13 282 6.4 16.1 0.00 0.00 0.00 85 1019.7
20260506113019 13 287 9.7 12.9 0.00 0.00 0.00 85 1019.6
20260506112512 13 298 6.4 12.9 0.00 0.00 0.00 85 1019.6
20260506112009 13 288 6.4 12.9 0.00 0.00 0.00 85 1019.5
20260506111525 13 287 6.4 12.9 0.00 0.00 0.00 85 1019.5
20260506111008 13 296 6.4 11.3 0.00 0.00 0.00 85 1019.4
20260506110508 13 270 4.8 11.3 0.00 0.00 0.00 85 1019.4
20260506110028 13 266 6.4 11.3 0.00 0.00 0.00 85 1019.4
20260506105507 13 278 6.4 11.3 0.00 0.00 0.00 85 1019.4
20260506105011 13 270 4.8 14.5 0.00 0.00 0.00 84 1019.4
20260506104519 13 265 6.4 14.5 0.00 0.00 0.00 84 1019.4
20260506104007 13 271 9.7 14.5 0.00 0.00 0.00 84 1019.4
20260506103508 13 277 8.0 14.5 0.00 0.00 0.00 84 1019.3
20260506103022 13 281 9.7 14.5 0.00 0.00 0.00 85 1019.3
20260506102509 13 284 9.7 14.5 0.00 0.00 0.00 85 1019.3
20260506102011 13 284 9.7 14.5 0.00 0.00 0.00 85 1019.3
20260506101526 13 281 11.3 16.1 0.00 0.00 0.00 85 1019.2
20260506101007 13 286 9.7 16.1 0.00 0.00 0.00 85 1019.1
20260506100507 13 275 8.0 12.9 0.00 0.00 0.00 84 1019.1
20260506100022 13 284 8.0 14.5 0.00 0.00 0.00 84 1019.2
20260506095509 13 281 11.3 14.5 0.00 0.00 0.00 84 1019.2
20260506095011 13 292 6.4 12.9 0.00 0.00 0.00 84 1019.2
20260506094518 13 263 6.4 12.9 0.00 0.00 0.00 84 1019.3
20260506094008 13 271 6.4 11.3 0.00 0.00 0.00 84 1019.3
20260506093508 13 268 4.8 11.3 0.00 0.00 0.00 84 1019.3
20260506093022 13 265 4.8 11.3 0.00 0.00 0.00 84 1019.3
20260506092507 13 262 6.4 11.3 0.00 0.00 0.00 84 1019.3
20260506092011 13 263 6.4 12.9 0.00 0.00 0.00 83 1019.3
20260506091524 13 265 4.8 12.9 0.00 0.00 0.00 83 1019.3
20260506091013 13 276 9.7 14.5 0.00 0.00 0.00 83 1019.3
20260506090508 13 272 6.4 14.5 0.00 0.00 0.00 83 1019.3
20260506090027 13 272 8.0 16.1 0.00 0.00 0.00 83 1019.3
20260506085507 13 265 12.9 16.1 0.00 0.03 0.00 83 1019.3
20260506085008 13 273 11.3 16.1 0.00 0.03 0.00 83 1019.3
20260506084534 13 282 11.3 16.1 0.00 0.03 0.00 83 1019.3
20260506084010 13 269 12.9 16.1 0.00 0.03 0.00 83 1019.3
20260506083512 13 270 12.9 16.1 0.00 0.05 0.00 83 1019.3
20260506083027 13 277 11.3 17.7 0.00 0.05 0.00 83 1019.3
20260506082507 13 265 12.9 17.7 0.00 0.05 0.00 83 1019.3
20260506082007 13 256 9.7 14.5 0.00 0.05 0.00 83 1019.3
20260506081522 13 270 11.3 16.1 0.00 0.05 0.00 83 1019.3
20260506081011 13 275 11.3 16.1 0.00 0.05 0.00 83 1019.2
20260506080507 13 253 9.7 14.5 0.00 0.05 0.00 83 1019.2
20260506073514 13 270 12.9 19.3 0.00 0.15 0.00 83 1019.1
20260506073014 13 270 14.5 19.3 0.00 0.15 0.00 83 1019.2
20260506072507 13 270 12.9 20.9 0.00 0.20 0.00 83 1019.1
20260506072009 13 268 12.9 20.9 0.00 0.23 0.00 83 1019.2
20260506071508 13 269 14.5 19.3 0.00 0.25 0.00 83 1019.0
20260506071007 13 265 12.9 20.9 0.00 0.25 0.00 83 1019.0
20260506070507 13 265 14.5 20.9 0.00 0.25 0.00 83 1018.9
20260506062509 13 269 14.5 19.3 0.00 0.28 0.28 83 1018.7
20260506062007 13 281 14.5 19.3 0.00 0.28 0.28 82 1018.6
20260506061514 14 267 14.5 17.7 0.00 0.30 0.28 83 1018.5
20260506061007 14 277 12.9 17.7 0.00 0.30 0.28 82 1018.5
20260506060505 14 269 12.9 17.7 0.00 0.30 0.28 82 1018.5
20260506051005 14 251 3.2 17.7 0.00 0.48 0.28 83 1018.2
20260506050506 14 252 9.7 17.7 0.00 0.51 0.28 83 1018.2
20260506045007 14 263 11.3 20.9 0.00 0.53 0.28 83 1018.0
20260506044523 14 272 12.9 17.7 0.00 0.53 0.28 83 1018.1
20260506044006 14 275 12.9 17.7 0.00 0.53 0.28 83 1017.9
20260506043503 14 264 6.4 16.1 0.00 0.56 0.28 83 1017.8
20260506043008 14 227 3.2 6.4 0.00 0.58 0.28 82 1017.7
20260506042504 14 226 0.0 4.8 0.00 0.61 0.28 82 1017.7
20260506042004 14 226 1.6 6.4 0.00 0.64 0.28 82 1017.7
20260506041508 14 226 3.2 8.0 0.00 0.64 0.28 82 1017.7
20260506041004 14 227 4.8 8.0 0.00 0.64 0.28 81 1017.6
20260506040503 14 226 0.0 8.0 0.00 0.66 0.28 81 1017.5
20260506040009 14 226 4.8 17.7 0.00 0.66 0.28 81 1017.5
20260506035509 15 229 4.8 17.7 0.00 0.69 0.28 81 1017.5
20260506035009 15 264 4.8 9.7 0.00 0.69 0.28 81 1017.5
20260506034510 15 208 4.8 9.7 0.00 0.71 0.28 81 1017.3
20260506034011 15 207 1.6 9.7 0.00 0.71 0.28 81 1017.1
20260506033511 15 205 3.2 9.7 0.00 0.71 0.28 81 1016.9
20260506033023 15 194 3.2 11.3 0.00 0.74 0.28 81 1017.0
20260506032503 15 237 3.2 11.3 0.00 0.74 0.28 81 1016.8
20260506032004 15 231 4.8 9.7 0.00 0.74 0.28 80 1016.8
20260506031508 15 229 3.2 8.0 0.00 0.74 0.28 80 1016.6
20260506031004 15 229 4.8 8.0 0.00 0.76 0.28 80 1016.6
20260506030503 15 228 3.2 9.7 0.00 0.76 0.28 79 1016.5
20260506030012 15 232 3.2 12.9 0.00 0.76 0.28 79 1016.5
20260506025507 15 197 3.2 12.9 0.00 0.76 0.28 79 1016.5
20260506025004 15 202 4.8 12.9 0.00 0.76 0.28 79 1016.4
20260506024518 15 220 6.4 12.9 0.00 0.76 0.28 78 1016.3
20260506024008 15 209 3.2 12.9 0.00 0.76 0.28 78 1016.2